This is the latest recevied weather packets stored in our database for station/object DO2HBA-6. If no packets are shown the sender has not sent any weather packets the latest 10 day(s).
| Time | Temp. | Humidity | Pressure | Rain* | Wind** | Luminosity | Snow |
|---|---|---|---|---|---|---|---|
| 1777959848 | 12.78° C | 10% | 1009.8 hPa | 0 mm | - | - | - |
| 1777959548 | 12.22° C | 10% | 1009.7 hPa | 0 mm | - | - | - |
| 1777959248 | 12.22° C | 10% | 1009.7 hPa | 0 mm | - | - | - |
| 1777958947 | 11.67° C | 10% | 1009.7 hPa | 0 mm | - | - | - |
| 1777958647 | 11.67° C | 10% | 1009.7 hPa | 0 mm | - | - | - |
| 1777958347 | 11.11° C | 10% | 1009.7 hPa | 0 mm | - | - | - |
| 1777958047 | 11.11° C | 10% | 1009.8 hPa | 0 mm | - | - | - |
| 1777957746 | 11.11° C | 10% | 1009.9 hPa | 0 mm | - | - | - |
| 1777957446 | 11.11° C | 10% | 1009.8 hPa | 0 mm | - | - | - |
| 1777957146 | 11.11° C | 10% | 1009.7 hPa | 0 mm | - | - | - |
| 1777956845 | 10.56° C | 10% | 1009.8 hPa | 0 mm | - | - | - |
| 1777956545 | 10.56° C | 10% | 1009.8 hPa | 0 mm | - | - | - |
| 1777956245 | 10.56° C | 10% | 1009.8 hPa | 0 mm | - | - | - |
| 1777955944 | 10.56° C | 10% | 1009.7 hPa | 0 mm | - | - | - |
| 1777955644 | 10.56° C | 10% | 1009.6 hPa | 0 mm | - | - | - |
| 1777955344 | 11.11° C | 10% | 1009.6 hPa | 0 mm | - | - | - |
| 1777955044 | 11.11° C | 10% | 1009.6 hPa | 0 mm | - | - | - |
| 1777954743 | 10.56° C | 10% | 1009.8 hPa | 0 mm | - | - | - |
| 1777954443 | 10.56° C | 10% | 1009.8 hPa | 0 mm | - | - | - |
| 1777954143 | 11.11° C | 10% | 1009.8 hPa | 0 mm | - | - | - |
| 1777953842 | 11.11° C | 10% | 1009.8 hPa | 0 mm | - | - | - |
| 1777953542 | 11.11° C | 10% | 1009.8 hPa | 0 mm | - | - | - |
| 1777953242 | 11.11° C | 10% | 1009.8 hPa | 0 mm | - | - | - |
| 1777952942 | 11.11° C | 10% | 1009.9 hPa | 0 mm | - | - | - |
| 1777952641 | 11.67° C | 10% | 1009.9 hPa | 0 mm | - | - | - |
* Rain latest hour (hover to see other rain measurements)
** Current wind speed in m/s (hover to see current wind gust speed)